Location: Fort Frances
(48.6170°N, 93.4170°W)
Time: 12:11:59
(UTC-05:00)

Daily predictions for brighter satellites

Satellite Brightness Start Highest point End
(mag) Time Altitude Azimuth Time Altitude Azimuth Time Altitude Azimuth
Spot 2 Rocket 4.1 19:14:51 10° SE 19:19:26 37° ENE 19:24:03 10° N
Cosmos 2233 Rocket 4.5 19:14:33 10° SSW 19:20:50 70° W 19:27:10 10° N
CZ-2C R/B 3.8 19:16:29 10° S 19:21:07 43° W 19:25:38 10° NNW
Cosmos 1603 4.2 19:18:01 10° S 19:23:21 41° ESE 19:28:43 10° NE
In-Cosmos 22 4.3 19:19:12 10° N 19:25:01 75° ENE 19:30:45 10° SSE
HJ-1C 4.3 19:24:30 10° SE 19:27:30 30° ENE 19:30:30 10° N
Cosmos 1674 3.6 19:26:28 10° N 19:29:56 29° ENE 19:33:22 10° SE
Meteor 1-22 Rocket 4.2 19:25:57 10° SSW 19:31:15 82° WNW 19:36:35 10° N
Cosmos 1953 2.5 19:29:44 10° SSE 19:33:34 48° E 19:37:25 10° NNE
CZ-4C R/B 3.4 19:28:40 10° WSW 19:33:59 44° NW 19:40:05 10° NE
Helios 1B rocket 3.5 19:30:43 10° NE 19:34:07 24° E 19:37:29 10° SSE
Cosmos 1743 Rocket 3.8 19:31:14 10° N 19:35:33 48° ENE 19:39:48 10° SSE
Spot 1 4.3 19:33:21 10° SSE 19:37:48 54° ENE 19:42:02 10° N
Cosmos 1470 3.8 19:37:17 10° SE 19:40:24 24° E 19:43:33 10° NE
CZ-4B DEB 4.2 19:39:43 10° ESE 19:42:13 21° ENE 19:44:46 10° NNE
ATLAS 5 CENTAUR R/B 1.9 19:38:37 10° SW 19:43:29 86° SE 19:48:50 10° NE
Cosmos 2333 Rocket 4.1 19:38:43 10° WSW 19:43:46 30° NW 19:48:50 10° NNE
Resurs 1-3 4.0 19:40:35 10° SE 19:44:44 43° ENE 19:48:55 10° N
ATLAS 3B R/B 4.2 19:38:48 10° W 19:45:37 35° NNW 19:52:09 10° NE
Cosmos 1544 3.3 19:44:17 10° SSE 19:47:53 47° E 19:51:31 10° NNE
SAR-Lupe-4 4.0 19:44:33 10° S 19:48:05 66° WSW 19:51:40 10° NNW
Cosmos 2058 4.2 19:51:00 10° NNE 19:54:09 21° ENE 19:55:45 17° E
USA 186 3.5 19:55:42 11° NE 19:55:42 11° NE 19:56:06 10° NE
COSMO-SKYMED 1 3.3 19:50:55 10° N 19:55:12 58° WNW 19:59:28 10° SSW
Resurs 01 Rocket 1.6 19:50:52 10° SSE 19:55:17 69° ENE 19:59:44 10° N
Meteor 2-12 Rocket 4.4 19:49:58 10° S 19:56:05 71° E 20:02:13 10° NNE
Cosmos 2237 Rocket 4.2 19:51:42 10° WSW 19:56:34 29° NW 20:01:28 10° NNE
ERS-1 Rocket 4.5 19:56:03 15° E 19:57:59 18° ENE 20:01:21 10° NNE
METEOR-M 4.1 19:54:11 10° SSE 19:59:33 86° ENE 20:04:56 10° NNW
SJ-6B 3.5 19:56:50 10° S 20:00:49 59° W 20:04:54 10° NNW
SL-8 R/B 4.1 19:56:27 10° SW 20:01:01 45° SSE 20:04:09 19° E
ALOS 2.5 19:59:53 10° SE 20:04:23 50° ENE 20:08:55 10° N
Cosmos 2151 3.4 20:04:10 10° N 20:08:10 40° ENE 20:11:13 16° SE
FengYun 1-2 T 4.1 20:02:50 10° SSE 20:08:19 74° ENE 20:13:48 10° NNW
ASTEX 1 3.7 20:03:52 10° NNE 20:08:35 44° E 20:13:14 10° SSE
Meteor 1-29 3.3 20:05:48 10° NNE 20:09:10 42° E 20:12:30 10° S
Nadezhda 4 Rocket 4.0 20:03:27 10° N 20:09:46 89° W 20:15:59 10° S
Cosmos 1110 Rocket 4.2 20:05:01 10° NNW 20:10:13 52° ENE 20:14:19 16° SE
NOSS 3-2 (A) 4.1 20:05:25 10° WSW 20:11:33 59° NW 20:18:23 10° NE
GP-B 3.7 20:08:08 10° NNE 20:12:13 34° E 20:15:21 15° SE
Cosmos-2242 3.4 20:11:19 10° SSW 20:15:41 69° WNW 20:20:06 10° N
Cosmos 1805 Rocket 4.5 20:13:36 10° N 20:17:29 29° ENE 20:18:30 26° E
Cosmos 482 Debris 4.0 20:15:23 10° WNW 20:17:34 43° NNE 20:18:27 31° ENE
Cosmos 1437 Rocket 4.5 20:19:29 17° NE 20:19:29 17° NE 20:20:53 10° NE
Cosmos 1758 4.2 20:15:02 10° SSW 20:19:02 53° WNW 20:23:05 10° N
SL-16 R/B 3.7 20:14:19 10° WSW 20:19:36 38° NW 20:24:54 10° NNE
ISS -3.1 20:16:50 10° SW 20:19:59 49° SSE 20:20:46 39° ESE
H-2A R/B 4.2 20:20:18 13° NE 20:20:18 13° NE 20:22:06 10° NNE
FENGYUN 3A 3.6 20:15:17 10° SSE 20:20:37 70° ENE 20:26:02 10° N
Cosmos 1092 Rocket 3.9 20:14:34 10° N 20:20:49 83° E 20:26:59 10° S
Cosmos 2221 3.5 20:21:56 26° E 20:21:56 26° E 20:25:10 10° NNE
Abrixas 2.6 20:21:42 10° WSW 20:24:38 52° SSE 20:25:00 48° SE
Meteor 1-28 Rocket 4.2 20:22:28 10° N 20:26:05 49° WNW 20:29:40 10° SSW
Cosmos 1633 Rocket 4.3 20:24:56 10° NNE 20:28:05 23° ENE 20:28:05 23° ENE
Cosmos 2026 Rocket 4.0 20:24:33 10° N 20:30:35 58° ENE 20:35:54 14° SSE
CENTAUR R/B 2.5 20:27:46 10° SSW 20:33:49 62° ESE 20:40:41 10° NE
Cosmos 839 Rocket 4.5 20:26:08 10° NW 20:34:03 75° WSW 20:39:42 14° SSE
Cosmos 1328 3.6 20:30:59 10° N 20:34:59 77° E 20:37:22 23° SSE
CZ-2D R/B 3.1 20:32:42 22° SSE 20:35:07 79° ENE 20:39:02 10° N
Cosmos 1655 Rocket 4.0 20:29:09 10° N 20:35:18 57° ENE 20:39:53 18° SSE
Cosmos 2251 Rocket 3.8 20:30:50 10° S 20:35:41 40° ESE 20:40:35 10° NE
SL-14 R/B 3.5 20:32:28 10° N 20:36:26 50° ENE 20:37:14 43° ESE
ERBS 2.3 20:35:08 10° NW 20:38:39 82° SW 20:39:19 56° SE
Cosmos 1331 Rocket 3.9 20:35:07 10° NNW 20:40:28 78° ENE 20:43:31 26° SSE
Cosmos 1634 Rocket 3.9 20:35:29 10° S 20:41:40 72° E 20:47:51 10° NNE
Cosmos 1943 Rocket 2.1 20:36:03 10° NNW 20:41:41 70° ENE 20:44:22 31° SE
Cosmos 1500 Rocket 4.5 20:39:05 10° NNW 20:43:24 50° W 20:47:42 10° S
H-2A R/B 2.7 20:41:19 25° SSE 20:43:31 86° WSW 20:47:24 10° NNW
Helios 1A 4.4 20:44:38 10° SSW 20:48:35 38° W 20:52:34 10° NNW
Cosmos 1842 Rocket 4.0 20:44:49 10° SSW 20:49:07 63° WNW 20:53:29 10° N
Aureole 3 4.4 20:43:42 10° N 20:49:36 45° ENE 20:50:29 41° E
Cosmos 2195 Rocket 4.5 20:46:43 10° N 20:53:05 88° W 20:59:27 10° S
Cosmos 2369 Rocket 3.1 20:47:45 10° NW 20:53:11 48° WSW 20:58:36 10° S
Cosmos 1939 Rocket 3.9 20:55:15 32° NE 20:55:15 32° NE 20:57:57 10° N
YAOGAN 11 4.4 20:55:02 45° ENE 20:55:02 45° ENE 20:58:54 10° N
Cosmos 1302 Rocket 4.0 20:49:47 10° NNW 20:54:58 63° ENE 20:56:16 47° ESE
Cosmos 1666 Rocket 3.8 20:52:43 10° N 20:56:51 49° ENE 20:56:51 49° ENE
Cosmos 1943 3.1 20:53:06 10° SSW 20:58:45 86° WNW 21:04:25 10° NNE
Elektron 1 4.2 20:56:16 10° SW 20:58:42 62° SSW 20:58:42 62° SSW
SJ-11-01 4.2 21:00:27 57° ESE 21:00:58 61° ENE 21:05:37 10° N
Cosmos 1733 4.2 20:59:48 10° SSW 21:03:33 48° WNW 21:07:19 10° N
Envisat 3.0 21:08:51 57° E 21:09:06 57° ENE 21:14:06 10° N
Helios 1B rocket 4.0 21:05:45 10° N 21:09:32 36° WNW 21:13:17 10° SW
Cosmos 158 Rocket 4.1 21:04:47 10° SSW 21:09:37 66° WNW 21:14:31 10° NNE
Gbstr 26 Del rocket 3.3 21:10:21 10° WSW 21:15:02 75° SSE 21:15:30 69° ESE
Cosmos 1174 4.2 21:11:08 10° SW 21:15:23 58° NW 21:15:47 54° NNW
USA 215 3.2 21:13:01 37° ENE 21:15:42 64° SE 21:22:11 10° SW
Cosmos 1703 4.3 21:17:08 10° N 21:19:37 37° N 21:19:37 37° N
CZ-4C R/B 4.4 21:19:31 10° WNW 21:24:13 23° N 21:29:25 10° NE
Sich 1 3.4 21:22:03 10° N 21:25:37 58° N 21:25:37 58° N
ATLAS 5 CENTAUR R/B 3.9 21:24:33 10° W 21:28:52 27° NNW 21:33:33 10° NNE
Cosmos 2058 4.1 21:27:24 10° NNW 21:31:16 40° W 21:32:01 36° WSW
Cosmos 1626 4.3 21:30:18 10° N 21:31:34 20° N 21:31:34 20° N
ERS-1 Rocket 2.9 21:36:04 76° WSW 21:36:12 77° WSW 21:41:16 10° NNW
H-2A R/B 3.9 21:39:39 18° NNE 21:39:39 18° NNE 21:41:39 10° N
Cosmos 1656 Rocket 3.5 21:36:14 10° NNW 21:41:31 83° WNW 21:41:31 83° WNW
SL-8 R/B 4.3 21:38:34 10° W 21:42:09 50° WSW 21:42:09 50° WSW
BREEZE-M DEB (TANK) 3.8 21:38:45 10° W 21:46:53 44° SW 21:46:53 44° SW
Cosmos 2180 Rocket 4.5 21:45:07 40° SSW 21:47:26 77° W 21:53:38 10° N
ARGOS 4.1 21:51:24 36° NNE 21:51:24 36° NNE 21:54:58 10° N
H-2A R/B 3.6 21:57:27 32° N 21:57:27 32° N 21:59:55 10° NNW
ISS 0.0 21:53:17 10° W 21:53:27 11° W 21:53:27 11° W
SPOT 5 4.3 22:00:49 28° NNW 22:00:49 28° NNW 22:02:57 10° NNW
Cosmos 2221 4.1 21:58:44 33° W 21:59:02 33° WNW 22:02:57 10° N
Cosmos 2285 Rocket 4.4 21:58:09 10° NNW 22:03:24 53° NNE 22:03:24 53° NNE
Cosmos 2266 Rocket 4.2 22:07:57 10° NNW 22:14:00 68° WNW 22:14:00 68° WNW
Cosmos 1980 Rocket 4.1 22:19:23 10° N 22:22:13 20° NNE 22:22:13 20° NNE
Cosmos 1943 Rocket 4.1 22:20:47 10° NW 22:24:52 21° W 22:25:56 20° WSW
CENTAUR R/B 3.7 22:18:48 10° WSW 22:24:52 42° NNW 22:31:45 10° NE
Terra 4.3 22:46:04 16° N 22:46:04 16° N 22:47:06 10° N
USA 215 4.0 23:00:26 46° WNW 23:00:26 46° WNW 23:05:06 10° W
SL-16 R/B 4.5 22:54:57 10° N 22:57:03 16° NNE 22:57:03 16° NNE
CZ-4C R/B 4.2 23:09:38 10° NW 23:14:59 26° NNE 23:14:59 26° NNE
ATLAS 5 CENTAUR R/B 4.5 23:11:48 10° NW 23:15:26 18° N 23:15:37 18° N
H-2A R/B 4.4 23:20:17 20° NNW 23:20:17 20° NNW 23:21:49 10° NNW
Cosmos 2322 Rocket 4.5 23:15:55 10° N 23:17:53 18° N 23:17:53 18° N
ATLAS 3B R/B 4.1 23:25:01 10° NW 23:30:12 32° N 23:30:12 32° N
